Regional Weather Roundup
Issued by NWS

Home | Current Version | Previous Version | Graphics & Text | Print | Product List | Glossary On
Versions: 1 2 3 4 5 6 7 8 9 10 11 12 13 14 15 16 17 18 19 20 21 22 23 24 25 26 27 28
909
ASUS45 KSLC 211710
RWRUT

UTAH REGIONAL WEATHER ROUNDUP
NATIONAL WEATHER SERVICE SALT LAKE CITY UT
1100 AM MDT THU MAY 21 2015

UTZ001>011-023>025-211800-

NORTHERN UTAH

CITY           SKY/WX    TMP DP  RH WIND       PRES   REMARKS
BRIGHAM CITY   SUNNY     62  42  49 N6        29.99S
HILL AFB       MOSUNNY   61  45  55 E15       29.98F
LOGAN          SUNNY     59  46  62 N7        30.00F
OGDEN          SUNNY     64  41  42 CALM      29.97F
PROVO AIRPORT  PTSUNNY   57  46  67 W6        29.97F
SALT LAKE CITY PTSUNNY   61  45  55 N6        29.96F
VERNAL         CLOUDY    58  42  55 CALM      30.06F
WENDOVER       SUNNY     61  43  51 NE7       29.97F
HEBER CITY     PTSUNNY   52  41  66 CALM      30.04F
WEST JORDAN    SUNNY     61  45  55 CALM      29.98F

$$

UTZ012>022-026-027-211800-

SOUTHERN/CENTRAL UTAH

CITY           SKY/WX    TMP DP  RH WIND       PRES   REMARKS
BLANDING       PTSUNNY   65  38  37 S7        30.13S
BRYCE CANYON   CLOUDY    51  27  39 S5        30.09F
CEDAR CITY     CLOUDY    61  26  26 S14       29.97F
DELTA          PTSUNNY   58  44  60 E3        29.96S
HANKSVILLE     CLOUDY    64  36  34 NW3       30.00S
MILFORD        CLOUDY    59  38  45 N7        29.96F
MOAB/CYNLANDS  SUNNY     67  35  30 SE7       29.96F
PRICE          CLOUDY    61  40  45 SE9       30.02F
ST GEORGE      PTSUNNY   64  30  27 S9        29.92R
KANAB          CLOUDY    63  30  29 CALM      30.01F

$$

REGIONAL REPORTS     COLORADO/ARIZONA

CITY           SKY/WX    TMP DP  RH WIND       PRES   REMARKS
CRAIG, CO      PTSUNNY   57  41  55 CALM      30.10F
GRAND JUNCTION CLOUDY    60  40  47 S10       30.01F
RIFLE          CLOUDY    57  41  55 SE3       30.07F
MONTROSE       CLOUDY    60  40  47 N9        30.07F
CORTEZ         SUNNY     65  38  36 VRB3G17   30.07F
PAGE, AZ       NOT AVBL
GRAND CANYON   CLOUDY    56  27  32 S12G20    30.05F
KINGMAN        PTSUNNY   70  26  19 VRB6G17   29.89F
FLAGSTAFF      PTSUNNY   56  26  31 S14       30.07F

$$

REGIONAL REPORTS    NEVADA/IDAHO/WYOMING

CITY           SKY/WX    TMP DP  RH WIND       PRES   REMARKS
LAS VEGAS, NV  PTSUNNY   76  28  17 E7        29.78F
ELY            PTSUNNY   53  36  52 N6        30.00F
ELKO           SUNNY     61  40  45 VRB3      29.94F
POCATELLO, ID  MOSUNNY   59  49  69 NE6       30.01F
BURLEY         PTSUNNY   62  47  57 NE5       29.96F
EVANSTON, WY   MOSUNNY   48  40  73 NE15      30.10F
ROCK SPRINGS   MOSUNNY   49  41  74 NE6       30.13F
KEMMERER       CLOUDY    46  39  76 NE12      30.15S

$$



USA.gov is the U.S. government's official web portal to all federal, state and local government web resources and services.